| time (UTC) | temp C | wind direction | speed KPH | gust KPH | rain 1hr cm | rain 24hr cm | rain mn cm | humidity % | barometer mb |
| 20260504060106 | 10 | 183 | 1.6 | 6.4 | 0.00 | 0.00 | 0.00 | 55 | 1008.3 |
| 20260504050549 | 11 | 281 | 3.2 | 12.9 | 0.00 | 0.00 | 0.00 | 53 | 1008.5 |
| 20260504045549 | 11 | 187 | 3.2 | 16.1 | 0.00 | 0.00 | 0.00 | 53 | 1008.6 |
| 20260504045050 | 11 | 254 | 3.2 | 12.9 | 0.00 | 0.00 | 0.00 | 53 | 1008.6 |
| 20260504044548 | 11 | 298 | 1.6 | 17.7 | 0.00 | 0.00 | 0.00 | 53 | 1008.6 |
| 20260504044047 | 11 | 248 | 3.2 | 17.7 | 0.00 | 0.00 | 0.00 | 53 | 1008.6 |
| 20260504043546 | 11 | 221 | 4.8 | 16.1 | 0.00 | 0.00 | 0.00 | 54 | 1008.6 |
| 20260504043054 | 11 | 215 | 3.2 | 11.3 | 0.00 | 0.00 | 0.00 | 54 | 1008.6 |
| 20260504042544 | 11 | 268 | 3.2 | 11.3 | 0.00 | 0.00 | 0.00 | 54 | 1008.6 |
| 20260504042046 | 11 | 208 | 1.6 | 8.0 | 0.00 | 0.00 | 0.00 | 55 | 1008.6 |
| 20260504041543 | 11 | 261 | 1.6 | 11.3 | 0.00 | 0.00 | 0.00 | 55 | 1008.6 |
| 20260504041042 | 11 | 268 | 1.6 | 16.1 | 0.00 | 0.00 | 0.00 | 55 | 1008.6 |
| 20260504040542 | 11 | 253 | 1.6 | 16.1 | 0.00 | 0.00 | 0.00 | 54 | 1008.5 |
| 20260504040041 | 11 | 158 | 1.6 | 6.4 | 0.00 | 0.00 | 0.00 | 54 | 1008.5 |
| 20260504035540 | 11 | 215 | 0.0 | 4.8 | 0.00 | 0.00 | 0.00 | 55 | 1008.4 |
| 20260504035044 | 11 | 191 | 0.0 | 9.7 | 0.00 | 0.00 | 0.00 | 55 | 1008.4 |
| 20260504034547 | 11 | 288 | 1.6 | 17.7 | 0.00 | 0.00 | 0.00 | 55 | 1008.4 |
| 20260504034039 | 11 | 294 | 6.4 | 17.7 | 0.00 | 0.00 | 0.00 | 54 | 1008.5 |
| 20260504033539 | 11 | 320 | 3.2 | 11.3 | 0.00 | 0.00 | 0.00 | 56 | 1008.5 |
| 20260504033041 | 11 | 248 | 3.2 | 11.3 | 0.00 | 0.00 | 0.00 | 56 | 1008.5 |
| 20260504032539 | 11 | 274 | 3.2 | 17.7 | 0.00 | 0.00 | 0.00 | 57 | 1008.5 |
| 20260504032043 | 11 | 261 | 3.2 | 17.7 | 0.00 | 0.00 | 0.00 | 58 | 1008.6 |
| 20260504031538 | 10 | 298 | 1.6 | 14.5 | 0.00 | 0.00 | 0.00 | 59 | 1008.6 |
| 20260504031039 | 10 | 317 | 1.6 | 11.3 | 0.00 | 0.00 | 0.00 | 60 | 1008.6 |
| 20260504030538 | 10 | 229 | 1.6 | 12.9 | 0.00 | 0.00 | 0.00 | 60 | 1008.7 |
| 20260504030045 | 10 | 236 | 3.2 | 12.9 | 0.00 | 0.00 | 0.00 | 60 | 1008.8 |
| 20260504025538 | 10 | 240 | 0.0 | 6.4 | 0.00 | 0.00 | 0.00 | 63 | 1008.8 |
| 20260504025037 | 10 | 226 | 0.0 | 4.8 | 0.00 | 0.00 | 0.00 | 65 | 1008.9 |
| 20260504024537 | 10 | 217 | 0.0 | 4.8 | 0.00 | 0.00 | 0.00 | 66 | 1008.9 |
| 20260504024037 | 10 | 205 | 0.0 | 3.2 | 0.00 | 0.00 | 0.00 | 66 | 1009.0 |
| 20260504023537 | 10 | 215 | 0.0 | 3.2 | 0.00 | 0.00 | 0.00 | 64 | 1009.1 |
| 20260504023037 | 10 | 253 | 0.0 | 3.2 | 0.00 | 0.00 | 0.00 | 63 | 1009.2 |
| 20260504022537 | 10 | 198 | 0.0 | 3.2 | 0.00 | 0.00 | 0.00 | 64 | 1009.2 |
| 20260504022036 | 10 | 231 | 0.0 | 1.6 | 0.00 | 0.00 | 0.00 | 63 | 1009.2 |
| 20260504021537 | 10 | 235 | 0.0 | 3.2 | 0.00 | 0.00 | 0.00 | 64 | 1009.1 |
| 20260504021037 | 10 | 246 | 0.0 | 4.8 | 0.00 | 0.00 | 0.00 | 63 | 1009.1 |
| 20260504020536 | 10 | 234 | 0.0 | 6.4 | 0.00 | 0.00 | 0.00 | 65 | 1009.1 |
| 20260504020043 | 10 | 207 | 0.0 | 6.4 | 0.00 | 0.00 | 0.00 | 65 | 1009.1 |
| 20260504015536 | 10 | 229 | 0.0 | 4.8 | 0.00 | 0.00 | 0.00 | 66 | 1009.2 |
| 20260504015036 | 10 | 238 | 0.0 | 3.2 | 0.00 | 0.00 | 0.00 | 66 | 1009.3 |
| 20260504014538 | 10 | 154 | 0.0 | 4.8 | 0.00 | 0.00 | 0.00 | 66 | 1009.5 |
| 20260504014035 | 10 | 263 | 0.0 | 4.8 | 0.00 | 0.00 | 0.00 | 66 | 1009.6 |
| 20260504013536 | 10 | 229 | 0.0 | 6.4 | 0.00 | 0.00 | 0.00 | 67 | 1009.6 |
| 20260504013037 | 10 | 250 | 0.0 | 6.4 | 0.00 | 0.00 | 0.00 | 66 | 1009.7 |
| 20260504012532 | 10 | 265 | 1.6 | 11.3 | 0.00 | 0.00 | 0.00 | 66 | 1009.6 |
| 20260504012032 | 10 | 217 | 0.0 | 11.3 | 0.00 | 0.00 | 0.00 | 66 | 1009.6 |
| 20260504011533 | 10 | 263 | 1.6 | 8.0 | 0.00 | 0.00 | 0.00 | 66 | 1009.5 |
| 20260504011031 | 10 | 227 | 0.0 | 8.0 | 0.00 | 0.00 | 0.00 | 67 | 1009.7 |
| 20260504010533 | 10 | 83 | 1.6 | 11.3 | 0.00 | 0.00 | 0.00 | 67 | 1009.7 |
| 20260504010031 | 10 | 355 | 3.2 | 16.1 | 0.00 | 0.00 | 0.00 | 66 | 1009.8 |
| 20260504005532 | 10 | 168 | 3.2 | 16.1 | 0.00 | 0.00 | 0.00 | 65 | 1009.9 |
| 20260504005030 | 11 | 166 | 3.2 | 12.9 | 0.00 | 0.00 | 0.00 | 63 | 1010.0 |
| 20260504004530 | 11 | 101 | 3.2 | 25.7 | 0.00 | 0.00 | 0.00 | 61 | 1009.9 |
| 20260504004031 | 11 | 85 | 3.2 | 25.7 | 0.00 | 0.00 | 0.00 | 59 | 1009.7 |
| 20260504003531 | 11 | 11 | 3.2 | 14.5 | 0.00 | 0.00 | 0.00 | 58 | 1009.6 |
| 20260504003029 | 11 | 18 | 1.6 | 19.3 | 0.00 | 0.00 | 0.00 | 57 | 1009.5 |
| 20260504002529 | 11 | 86 | 3.2 | 19.3 | 0.00 | 0.00 | 0.00 | 55 | 1009.4 |
| 20260504002030 | 11 | 213 | 3.2 | 16.1 | 0.00 | 0.00 | 0.00 | 54 | 1009.3 |
| 20260504001529 | 11 | 294 | 6.4 | 16.1 | 0.00 | 0.00 | 0.00 | 54 | 1009.3 |
| 20260504001030 | 12 | 294 | 3.2 | 17.7 | 0.00 | 0.00 | 0.00 | 53 | 1009.3 |
| 20260504000529 | 12 | 5 | 4.8 | 20.9 | 0.00 | 0.00 | 0.00 | 53 | 1009.4 |
| 20260504000028 | 12 | 136 | 3.2 | 29.0 | 0.00 | 0.00 | 0.00 | 51 | 1009.3 |
| 20260503235527 | 12 | 322 | 8.0 | 24.1 | 0.00 | 0.00 | 0.00 | 50 | 1009.2 |
| 20260503235027 | 12 | 28 | 4.8 | 20.9 | 0.00 | 0.00 | 0.00 | 49 | 1009.2 |
| 20260503234527 | 12 | 220 | 3.2 | 20.9 | 0.00 | 0.00 | 0.00 | 48 | 1008.8 |
| 20260503234027 | 12 | 254 | 6.4 | 25.7 | 0.00 | 0.00 | 0.00 | 47 | 1008.8 |
| 20260503233527 | 12 | 167 | 4.8 | 30.6 | 0.00 | 0.00 | 0.00 | 47 | 1008.8 |
| 20260503233027 | 12 | 258 | 9.7 | 30.6 | 0.00 | 0.00 | 0.00 | 46 | 1008.7 |
| 20260503232526 | 12 | 213 | 8.0 | 19.3 | 0.00 | 0.00 | 0.00 | 46 | 1008.7 |
| 20260503232026 | 12 | 277 | 1.6 | 11.3 | 0.00 | 0.00 | 0.00 | 46 | 1008.7 |
| 20260503231526 | 12 | 13 | 1.6 | 12.9 | 0.00 | 0.00 | 0.00 | 46 | 1008.7 |
| 20260503231026 | 12 | 230 | 1.6 | 12.9 | 0.00 | 0.00 | 0.00 | 46 | 1008.6 |
| 20260503230526 | 12 | 285 | 3.2 | 12.9 | 0.00 | 0.00 | 0.00 | 46 | 1008.7 |
| 20260503230027 | 12 | 261 | 1.6 | 8.0 | 0.00 | 0.00 | 0.00 | 47 | 1008.6 |
| 20260503225528 | 12 | 321 | 1.6 | 8.0 | 0.00 | 0.00 | 0.00 | 45 | 1008.5 |
| 20260503225028 | 12 | 57 | 0.0 | 8.0 | 0.00 | 0.00 | 0.00 | 45 | 1008.8 |
| 20260503224526 | 12 | 355 | 0.0 | 8.0 | 0.00 | 0.00 | 0.00 | 45 | 1008.9 |
| 20260503224026 | 12 | 265 | 1.6 | 6.4 | 0.00 | 0.00 | 0.00 | 45 | 1008.9 |
| 20260503223524 | 12 | 26 | 1.6 | 4.8 | 0.00 | 0.00 | 0.00 | 44 | 1008.7 |
| 20260503223024 | 12 | 209 | 0.0 | 9.7 | 0.00 | 0.00 | 0.00 | 45 | 1008.9 |
| 20260503222523 | 12 | 211 | 3.2 | 12.9 | 0.00 | 0.00 | 0.00 | 44 | 1009.0 |
| 20260503222025 | 12 | 323 | 4.8 | 12.9 | 0.00 | 0.00 | 0.00 | 43 | 1009.0 |
| 20260503221525 | 12 | 317 | 1.6 | 16.1 | 0.00 | 0.00 | 0.00 | 44 | 1009.0 |
| 20260503221024 | 12 | 196 | 4.8 | 16.1 | 0.00 | 0.00 | 0.00 | 44 | 1009.2 |
| 20260503220524 | 12 | 182 | 1.6 | 8.0 | 0.00 | 0.00 | 0.00 | 44 | 1009.1 |
| 20260503220024 | 12 | 15 | 0.0 | 8.0 | 0.00 | 0.00 | 0.00 | 45 | 1009.0 |
| 20260503215524 | 12 | 277 | 1.6 | 8.0 | 0.00 | 0.00 | 0.00 | 44 | 1008.9 |
| 20260503215022 | 12 | 284 | 1.6 | 12.9 | 0.00 | 0.00 | 0.00 | 45 | 1009.0 |
| 20260503214537 | 12 | 25 | 0.0 | 16.1 | 0.00 | 0.00 | 0.00 | 43 | 1008.9 |
| 20260503214023 | 12 | 80 | 0.0 | 16.1 | 0.00 | 0.00 | 0.00 | 44 | 1008.8 |
| 20260503213522 | 12 | 92 | 1.6 | 8.0 | 0.00 | 0.00 | 0.00 | 43 | 1008.8 |
| 20260503213022 | 13 | 320 | 1.6 | 12.9 | 0.00 | 0.00 | 0.00 | 43 | 1008.7 |
| 20260503212522 | 13 | 291 | 1.6 | 8.0 | 0.00 | 0.00 | 0.00 | 44 | 1008.7 |
| 20260503212022 | 13 | 18 | 3.2 | 14.5 | 0.00 | 0.00 | 0.00 | 43 | 1008.7 |
| 20260503211521 | 13 | 246 | 4.8 | 14.5 | 0.00 | 0.00 | 0.00 | 42 | 1008.9 |
| 20260503211019 | 13 | 280 | 3.2 | 8.0 | 0.00 | 0.00 | 0.00 | 42 | 1008.9 |
| 20260503210519 | 13 | 360 | 3.2 | 19.3 | 0.00 | 0.00 | 0.00 | 45 | 1009.0 |
| 20260503210019 | 12 | 286 | 6.4 | 19.3 | 0.00 | 0.00 | 0.00 | 42 | 1009.0 |
| 20260503205519 | 12 | 36 | 4.8 | 12.9 | 0.00 | 0.00 | 0.00 | 42 | 1009.1 |
| 20260503205020 | 13 | 337 | 3.2 | 12.9 | 0.00 | 0.00 | 0.00 | 42 | 1009.0 |
| 20260503204517 | 13 | 315 | 3.2 | 11.3 | 0.00 | 0.00 | 0.00 | 41 | 1009.1 |
| 20260503204019 | 13 | 308 | 1.6 | 11.3 | 0.00 | 0.00 | 0.00 | 42 | 1009.1 |
| 20260503203516 | 13 | 355 | 0.0 | 14.5 | 0.00 | 0.00 | 0.00 | 46 | 1009.2 |
| 20260503203015 | 12 | 221 | 1.6 | 14.5 | 0.00 | 0.00 | 0.00 | 46 | 1009.3 |
| 20260503202515 | 12 | 183 | 4.8 | 16.1 | 0.00 | 0.00 | 0.00 | 43 | 1009.4 |
| 20260503202015 | 12 | 293 | 4.8 | 12.9 | 0.00 | 0.00 | 0.00 | 44 | 1009.5 |
| 20260503201516 | 12 | 76 | 3.2 | 12.9 | 0.00 | 0.00 | 0.00 | 43 | 1009.5 |
| 20260503201018 | 13 | 337 | 4.8 | 14.5 | 0.00 | 0.00 | 0.00 | 44 | 1009.6 |
| 20260503200514 | 12 | 40 | 3.2 | 14.5 | 0.00 | 0.00 | 0.00 | 44 | 1009.7 |
| 20260503200014 | 12 | 296 | 3.2 | 12.9 | 0.00 | 0.00 | 0.00 | 42 | 1009.7 |
| 20260503195512 | 13 | 267 | 1.6 | 14.5 | 0.00 | 0.00 | 0.00 | 43 | 1009.8 |
| 20260503195011 | 13 | 25 | 4.8 | 14.5 | 0.00 | 0.00 | 0.00 | 43 | 1009.9 |
| 20260503194510 | 12 | 292 | 3.2 | 19.3 | 0.00 | 0.00 | 0.00 | 44 | 1010.0 |
| 20260503194010 | 12 | 230 | 6.4 | 19.3 | 0.00 | 0.00 | 0.00 | 45 | 1010.0 |
| 20260503193509 | 12 | 186 | 3.2 | 16.1 | 0.00 | 0.00 | 0.00 | 45 | 1010.2 |
| 20260503193009 | 12 | 49 | 3.2 | 14.5 | 0.00 | 0.00 | 0.00 | 45 | 1010.3 |
| 20260503192508 | 12 | 267 | 1.6 | 16.1 | 0.00 | 0.00 | 0.00 | 48 | 1010.4 |
| 20260503192007 | 12 | 279 | 3.2 | 14.5 | 0.00 | 0.00 | 0.00 | 47 | 1010.4 |
| 20260503191515 | 13 | 291 | 3.2 | 16.1 | 0.00 | 0.00 | 0.00 | 49 | 1010.5 |
| 20260503191006 | 12 | 207 | 3.2 | 16.1 | 0.00 | 0.00 | 0.00 | 51 | 1010.6 |
| 20260503190504 | 12 | 49 | 1.6 | 12.9 | 0.00 | 0.00 | 0.00 | 54 | 1010.7 |
| 20260503190007 | 11 | 42 | 3.2 | 12.9 | 0.00 | 0.00 | 0.00 | 50 | 1010.8 |
| 20260503185503 | 11 | 200 | 0.0 | 6.4 | 0.00 | 0.00 | 0.00 | 51 | 1010.8 |
| 20260503185002 | 11 | 301 | 1.6 | 12.9 | 0.00 | 0.00 | 0.00 | 52 | 1010.8 |
| 20260503184503 | 10 | 198 | 1.6 | 12.9 | 0.00 | 0.00 | 0.00 | 49 | 1010.9 |
| 20260503184001 | 11 | 265 | 6.4 | 14.5 | 0.00 | 0.00 | 0.00 | 50 | 1010.9 |
| 20260503183600 | 11 | 245 | 4.8 | 14.5 | 0.00 | 0.00 | 0.00 | 50 | 1010.9 |
| 20260503183102 | 11 | 13 | 1.6 | 14.5 | 0.00 | 0.00 | 0.00 | 54 | 1010.8 |
| 20260503182559 | 11 | 11 | 1.6 | 20.9 | 0.00 | 0.00 | 0.00 | 53 | 1010.8 |
| 20260503182058 | 11 | 182 | 3.2 | 20.9 | 0.00 | 0.00 | 0.00 | 49 | 1010.9 |
| 20260503181612 | 11 | 326 | 3.2 | 11.3 | 0.00 | 0.00 | 0.00 | 54 | 1010.8 |
| 20260503181057 | 11 | 317 | 1.6 | 17.7 | 0.00 | 0.00 | 0.00 | 51 | 1010.9 |
| 20260503180552 | 11 | 280 | 4.8 | 17.7 | 0.00 | 0.00 | 0.00 | 50 | 1011.0 |
| 20260503180111 | 11 | 159 | 3.2 | 14.5 | 0.00 | 0.00 | 0.00 | 52 | 1011.0 |
| 20260503175550 | 11 | 28 | 4.8 | 20.9 | 0.00 | 0.00 | 0.00 | 47 | 1011.1 |
| 20260503175049 | 11 | 300 | 1.6 | 20.9 | 0.00 | 0.00 | 0.00 | 52 | 1011.1 |
| 20260503174556 | 11 | 53 | 3.2 | 24.1 | 0.00 | 0.00 | 0.00 | 53 | 1011.2 |
| 20260503174047 | 12 | 323 | 8.0 | 24.1 | 0.00 | 0.00 | 0.00 | 50 | 1011.2 |
| 20260503173546 | 12 | 292 | 1.6 | 12.9 | 0.00 | 0.00 | 0.00 | 56 | 1011.2 |
| 20260503173055 | 11 | 279 | 1.6 | 17.7 | 0.00 | 0.00 | 0.00 | 48 | 1011.3 |
| 20260503172544 | 11 | 131 | 3.2 | 17.7 | 0.00 | 0.00 | 0.00 | 52 | 1011.2 |
| 20260503172042 | 11 | 165 | 4.8 | 16.1 | 0.00 | 0.00 | 0.00 | 51 | 1011.3 |
| 20260503171542 | 11 | 236 | 3.2 | 9.7 | 0.00 | 0.00 | 0.00 | 50 | 1011.3 |
| 20260503171041 | 11 | 96 | 1.6 | 14.5 | 0.00 | 0.00 | 0.00 | 51 | 1011.4 |
| 20260503170540 | 11 | 348 | 4.8 | 14.5 | 0.00 | 0.00 | 0.00 | 49 | 1011.5 |
| 20260503150526 | 8 | 62 | 1.6 | 9.7 | 0.00 | 0.00 | 0.00 | 48 | 1013.4 |
| 20260503131007 | 6 | 221 | 4.8 | 17.7 | 0.00 | 0.00 | 0.00 | 56 | 1014.2 |
| 20260503130506 | 6 | 59 | 1.6 | 8.0 | 0.00 | 0.00 | 0.00 | 61 | 1014.3 |
| 20260503110521 | 1 | 295 | 0.0 | 4.8 | 0.00 | 0.00 | 0.00 | 87 | 1013.8 |
| 20260503090504 | 1 | 283 | 0.0 | 0.0 | 0.00 | 0.00 | 0.00 | 82 | 1013.5 |
| 20260503081556 | 2 | 264 | 0.0 | 3.2 | 0.00 | 0.00 | 0.00 | 80 | 1013.6 |
| 20260503081056 | 2 | 222 | 0.0 | 6.4 | 0.00 | 0.00 | 0.00 | 80 | 1013.6 |
| 20260503080557 | 2 | 244 | 0.0 | 6.4 | 0.00 | 0.00 | 0.00 | 80 | 1013.5 |
| 20260503080105 | 2 | 251 | 0.0 | 4.8 | 0.00 | 0.00 | 0.00 | 79 | 1013.6 |
| 20260503072549 | 3 | 280 | 0.0 | 4.8 | 0.00 | 0.00 | 0.00 | 79 | 1013.4 |
| 20260503072045 | 3 | 310 | 0.0 | 4.8 | 0.00 | 0.00 | 0.00 | 79 | 1013.5 |
| 20260503071546 | 3 | 323 | 0.0 | 4.8 | 0.00 | 0.00 | 0.00 | 79 | 1013.5 |
| 20260503071047 | 3 | 62 | 0.0 | 6.4 | 0.00 | 0.00 | 0.00 | 79 | 1013.4 |
| 20260503070543 | 3 | 314 | 0.0 | 6.4 | 0.00 | 0.00 | 0.00 | 79 | 1013.4 |